SCP
0 0 0 0 0 0 0 0 0 0 0 0 0 0 0 0 1 1 1 0 0 0 0 0 0 0 0 0 0 0 0 0 0 0 0 0 0 0 0 0 0 0 0 0
0 0 0 0 0 0 0 0 0 0 0 0 1 1 1 1 1 1 1 0 0 0 0 0 0 0 0 0 0 0 0 0 0 0 0 0 0 0 0 0 0 0 0 0
0 0 0 0 0 0 0 0 0 0 0 1 1 1 1 1 1 1 1 1 0 0 0 0 0 0 0 0 0 0 0 0 0 0 0 0 0 0 0 0 0 0 0 0
0 0 0 0 0 0 0 0 0 0 1 1 1 1 1 1 1 1 1 1 1 0 0 0 0 0 0 0 0 0 0 0 0 0 0 0 0 0 0 0 0 0 0 0
0 0 0 0 0 0 0 0 0 1 1 1 1 1 1 1 1 1 1 1 1 0 0 0 0 0 0 0 0 0 0 0 0 0 0 0 0 0 0 0 0 0 0 0
0 0 0 0 0 0 0 0 1 1 1 1 1 1 1 1 1 1 1 1 1 0 0 0 1 0 0 0 0 0 0 0 0 0 0 0 0 0 0 0 0 0 0 0
0 0 0 0 0 0 0 1 1 1 1 1 1 1 1 1 1 1 0 0 0 0 0 1 1 1 1 1 0 0 0 0 0 0 0 0 0 0 0 0 0 0 0 0
0 0 0 0 0 1 1 1 1 1 1 1 1 1 1 0 0 0 0 0 0 0 0 0 1 1 1 1 1 1 1 0 0 0 0 0 0 0 0 0 0 0 0 0
0 0 0 0 1 1 1 1 1 1 1 1 1 0 0 0 0 0 0 0 0 0 0 0 0 0 0 0 1 1 1 0 0 0 0 0 0 0 0 0 0 0 0 0
0 0 0 0 0 1 1 1 1 1 1 1 0 0 0 0 0 0 0 0 0 0 0 0 0 0 0 0 0 0 0 0 0 0 0 0 0 0 0 0 0 0 0 0
0 0 0 0 0 0 0 0 0 0 0 0 0 0 0 0 0 0 0 0 0 0 0 0 0 0 0 0 0 0 0 0 0 0 0 0 0 0 0 0 0 0 0 0
0 0 0 0 0 0 0 0 0 0 0 0 0 0 0 0 0 0 0 0 0 0 0 0 0 0 0 0 0 0 0 0 0 0 0 0 0 0 0 0 0 0 0 0
0 0 0 0 0 0 0 0 0 0 0 0 0 0 0 0 0 0 0 0 0 0 0 0 0 0 0 0 0 0 0 0 0 0 0 0 0 0 0 0 0 0 0 0
0 0 0 0 0 0 0 0 0 0 0 0 0 0 0 0 0 0 0 0 0 0 0 0 0 0 0 0 0 0 0 0 0 0 0 0 0 0 0 0 0 0 0 0
0 0 0 0 0 0 0 0 0 0 0 0 0 0 0 0 0 0 0 0 0 0 0 0 0 0 0 0 0 0 0 0 0 0 0 0 0 0 0 0 0 0 0 0
0 0 0 0 0 0 0 0 0 0 0 0 0 0 0 0 0 0 0 0 0 0 0 0 0 0 0 0 0 0 0 0 0 0 0 0 0 0 0 0 0 0 0 0
0 0 0 0 0 0 0 0 0 0 0 0 0 0 0 0 0 0 0 0 0 0 0 0 0 0 0 0 0 0 0 0 0 0 0 0 0 0 0 0 0 0 0 0
0 0 0 0 0 0 0 0 0 0 0 0 0 0 0 0 0 0 0 0 0 0 0 0 0 0 0 0 0 0 0 0 0 0 0 0 0 0 0 0 0 0 0 0
0 0 0 0 0 0 0 0 0 0 0 0 0 0 0 0 0 0 0 0 0 0 0 0 0 0 0 0 0 0 0 0 0 0 0 0 0 0 0 0 0 0 0 0
0 0 0 0 0 0 0 0 0 0 0 0 0 0 0 0 0 0 0 0 0 0 0 0 0 0 0 0 0 0 0 0 0 0 0 0 0 0 0 0 0 0 0 0
0 0 0 0 0 0 0 0 0 0 0 0 0 0 0 0 0 0 0 0 0 0 0 0 0 0 0 0 0 0 0 0 0 0 0 0 0 0 0 0 0 0 0 0
0 0 0 0 0 0 0 0 0 0 0 0 0 0 0 0 0 0 0 0 0 0 0 0 0 0 0 0 0 0 0 0 0 0 0 0 0 0 0 0 0 0 0 0
0 0 0 0 0 0 0 0 0 0 0 0 0 0 0 0 0 0 0 0 0 0 0 0 0 0 0 0 0 0 0 0 0 0 0 0 0 0 0 0 0 0 0 0
0 0 0 0 0 0 0 0 0 0 0 0 0 0 0 0 0 0 0 0 0 0 0 0 0 -0 0 0 0 0 0 0 0 0 0 0 0 0 0 0 0 0 0 0
0 0 0 0 0 0 0 0 0 0 0 0 0 0 0 0 0 0 0 0 0 0 0 0 0 0 0 0 0 0 0 0 0 0 0 0 0 0 0 0 0 0 0 0
0 0 0 0 0 0 0 0 0 0 0 0 0 0 0 0 0 0 0 0 0 0 0 0 0 0 0 0 0 0 0 0 0 0 0 0 0 0 0 0 0 0 0 0
0 0 0 0 0 0 0 0 0 0 0 0 0 0 0 0 0 0 0 0 0 0 0 0 0 0 0 0 0 0 0 0 0 0 0 0 0 0 0 0 0 0 0 0
Wind_Speed
10 4 6 11 13 14 15 13 10 7 7 3 4 4 5 5 6 7 8 8 7 7 6 6 6 6 6 6 6 6 7 7 6 6 6 6 6 6 5 5 6 5 5 5
10 9 10 11 11 13 13 11 10 8 3 6 6 5 5 5 6 7 7 7 7 7 7 7 7 6 6 6 6 6 7 7 7 7 6 6 6 6 6 6 5 6 6 5
11 10 10 14 12 12 11 9 9 8 3 7 6 6 5 5 5 5 5 6 6 7 6 6 6 6 7 6 7 7 7 7 7 7 7 7 7 7 7 7 7 7 6 7
10 9 15 4 2 6 8 7 4 1 5 5 7 7 5 4 4 4 4 5 5 5 5 5 6 6 6 7 7 7 7 7 7 7 8 7 7 7 7 7 7 7 7 9
10 13 12 6 5 6 8 7 4 4 6 8 9 9 7 5 4 4 4 4 4 4 5 5 5 6 7 7 7 7 6 7 7 8 8 8 8 8 7 8 8 8 8 9
10 13 12 6 7 3 5 7 5 5 6 7 8 6 6 5 4 5 4 4 3 3 4 5 5 6 7 7 7 7 7 7 7 8 9 9 9 9 9 9 10 9 10 9
12 12 8 5 6 6 10 2 6 5 5 5 2 5 8 5 5 4 4 4 4 4 4 4 4 6 6 6 6 6 7 7 8 8 9 10 10 10 11 10 11 11 11 11
11 13 7 6 5 4 3 5 5 5 5 6 8 8 7 5 5 4 4 4 4 4 4 4 4 5 6 6 5 6 8 9 9 8 8 9 11 11 11 12 13 12 11 11
4 1 6 3 3 4 3 4 4 4 5 7 7 6 6 5 5 4 4 4 4 5 5 4 4 4 5 5 6 8 8 9 10 10 9 9 10 11 10 9 9 10 9 10
3 4 4 4 4 4 4 4 4 5 5 5 6 6 6 5 4 4 4 4 4 5 5 5 4 5 5 6 7 9 10 10 10 11 11 10 8 8 8 8 9 9 9 10
4 4 5 5 4 4 5 5 5 5 5 5 6 6 6 5 5 4 4 4 4 5 5 5 6 6 6 6 8 10 11 11 11 11 11 11 10 9 8 7 6 8 9 9
2 4 2 5 5 4 4 4 4 5 6 5 6 6 7 6 5 5 5 5 5 6 6 6 7 7 6 6 8 11 11 11 9 10 10 11 12 12 18 15 17 16 12 10
2 3 4 5 4 4 4 5 5 5 6 6 6 6 7 7 6 6 6 6 7 7 8 8 8 8 7 7 9 11 12 11 10 10 10 10 10 11 12 14 18 17 15 14
3 3 3 4 4 5 6 6 6 7 7 7 6 7 8 8 8 8 7 7 8 9 9 9 10 9 9 9 11 12 12 12 11 10 10 10 10 10 10 12 12 10 12 13
3 2 3 4 5 5 6 7 7 7 8 8 7 8 9 9 9 8 8 8 9 10 10 11 11 10 9 11 12 12 11 9 9 10 10 10 10 10 10 12 11 11 10 10
4 4 6 7 6 6 6 7 8 8 8 8 9 9 9 10 10 9 8 8 10 11 10 11 11 10 10 11 12 11 10 14 11 10 10 10 10 10 10 10 10 9 9 9
7 7 8 8 8 7 7 7 8 9 9 9 10 10 10 11 11 10 10 10 10 11 11 11 11 10 11 11 11 10 11 12 13 10 9 9 9 9 9 9 9 8 8 7
6 6 7 7 8 8 8 9 9 10 10 11 11 11 11 11 11 10 10 11 12 12 10 10 11 11 11 11 10 10 10 9 9 10 9 9 9 9 9 9 9 9 9 8
7 7 8 8 8 9 9 10 11 11 11 11 12 11 11 11 11 11 11 11 11 11 10 10 10 11 11 10 9 8 9 10 10 9 9 9 8 8 8 8 8 8 8 8
9 10 10 10 10 10 11 11 11 11 11 11 12 12 12 11 11 11 11 9 8 8 9 9 10 10 11 9 6 8 9 10 10 9 9 8 8 8 8 8 8 7 7 6
12 12 12 12 12 11 11 12 12 12 11 11 12 12 12 11 11 10 10 10 9 9 10 8 7 8 8 7 6 8 8 8 8 8 7 7 7 7 7 7 7 6 6 5
12 12 13 12 12 12 11 11 12 13 12 12 12 12 12 11 10 9 9 8 9 7 7 7 7 9 8 6 6 7 8 8 7 7 7 7 7 7 7 7 6 6 5 5
11 12 13 12 13 13 12 11 12 12 12 12 12 12 11 9 8 8 8 8 8 6 5 7 10 9 6 5 6 7 7 7 7 6 6 6 6 6 6 7 6 5 5 5
12 12 12 13 13 13 12 12 11 10 11 10 10 10 9 8 7 7 8 9 7 6 6 10 10 7 5 5 6 6 7 7 6 6 6 6 6 6 6 6 5 5 5 5
13 13 13 13 12 10 12 12 12 12 11 9 10 9 7 6 7 8 8 10 9 7 8 9 7 5 5 5 6 6 6 5 5 5 6 5 5 5 5 5 5 4 4 4
12 10 10 9 9 9 9 9 8 8 8 8 8 7 6 6 8 8 7 9 10 7 6 8 8 7 5 5 6 6 6 7 6 5 5 5 5 5 4 4 5 4 4 4
11 10 8 9 8 8 7 7 8 8 8 8 8 7 7 7 7 7 8 7 8 7 6 6 6 6 6 6 6 6 5 5 6 5 5 5 5 4 5 5 4 4 4 4
Wind_Direction
252 255 218 214 208 205 219 239 251 244 239 154 134 142 140 147 151 150 151 160 167 166 163 165 166 164 165 160 155 152 151 151 150 151 150 148 146 145 146 151 155 151 148 151
228 223 223 224 220 212 220 232 245 253 212 95 105 119 131 145 158 157 157 162 167 166 165 168 171 170 166 162 154 152 150 149 146 144 144 139 136 136 135 132 131 129 131 129
228 210 217 223 216 213 213 221 233 236 150 124 128 125 130 141 152 151 151 155 161 163 166 169 172 169 166 160 155 155 151 149 145 140 136 134 133 130 130 126 121 116 112 108
234 212 229 211 134 226 223 215 227 117 109 116 112 105 91 85 112 124 134 142 147 155 161 164 161 159 158 153 155 154 153 150 143 138 133 130 125 123 121 119 115 109 103 100
232 226 226 175 171 199 213 209 194 175 137 127 128 131 107 77 76 92 103 116 129 141 146 146 148 150 151 151 150 152 156 153 147 143 139 133 127 123 120 114 107 102 100 99
227 240 234 202 139 167 227 209 150 163 156 154 181 203 116 100 86 79 80 95 111 126 133 133 139 149 151 152 152 156 157 152 147 144 140 136 130 124 117 112 109 107 102 99
227 234 238 99 132 186 224 185 118 145 149 161 128 56 99 105 90 85 84 90 106 117 119 122 138 152 153 147 149 148 143 138 134 134 134 129 122 121 119 114 109 104 99 93
231 237 222 112 174 217 49 79 113 124 122 109 101 106 112 109 101 95 92 97 107 112 110 109 125 143 145 142 137 131 129 126 123 123 121 121 121 120 120 119 114 108 104 98
246 263 71 93 83 69 73 101 103 108 110 120 126 125 122 113 105 98 93 100 107 114 111 104 111 134 135 132 128 124 120 118 115 109 105 111 117 120 119 118 116 114 112 107
197 144 125 119 114 106 96 99 97 100 111 125 127 127 124 113 103 99 93 95 104 110 111 103 97 99 108 116 121 121 120 116 113 110 104 97 98 103 108 114 118 119 116 113
203 149 152 150 130 115 109 105 105 106 108 115 126 128 121 114 105 98 93 90 99 105 104 102 101 97 98 110 122 123 120 116 112 107 104 93 80 71 84 78 91 113 115 117
209 135 170 128 118 114 116 113 112 115 110 111 120 123 121 113 106 102 100 97 101 101 98 94 96 95 96 109 124 123 118 115 113 111 107 105 100 84 62 71 70 70 79 99
68 85 83 108 115 111 108 104 105 109 110 111 113 118 119 114 109 104 100 99 99 99 98 96 93 93 96 105 113 114 115 115 114 114 114 114 114 113 106 83 71 70 76 87
135 136 143 139 122 119 115 111 108 104 103 106 112 115 113 110 106 100 97 101 103 102 100 100 98 94 98 104 106 107 109 110 113 114 115 116 116 117 118 119 113 99 84 89
185 191 155 134 128 128 129 129 121 114 111 110 113 116 116 113 108 103 104 108 108 105 103 103 100 98 103 108 109 111 112 113 113 114 115 116 118 117 116 116 115 117 118 111
165 155 158 157 146 141 142 138 130 124 121 120 116 114 113 111 109 107 107 111 109 105 105 104 103 106 108 109 108 106 106 113 119 120 120 122 122 122 121 122 123 125 127 130
179 179 172 162 154 150 145 138 131 128 127 124 121 120 117 114 110 105 103 100 101 102 104 105 106 108 110 112 113 113 116 119 124 123 121 121 122 123 125 128 128 128 123 112
199 183 173 163 155 148 140 132 130 129 129 127 126 125 122 119 114 111 108 106 102 98 99 106 111 114 114 116 116 118 123 128 125 120 122 124 126 128 128 128 130 130 130 138
168 162 154 148 145 141 136 133 131 129 129 129 127 123 121 118 117 117 116 113 111 107 107 112 118 120 117 115 118 123 125 124 122 122 122 127 134 130 133 136 138 140 142 147
150 143 137 134 134 134 131 130 129 128 129 130 128 126 123 120 119 119 117 109 103 109 121 124 128 121 123 125 132 125 127 128 129 130 134 141 136 136 140 141 143 145 144 144
137 135 133 133 131 130 130 132 132 130 130 132 132 129 126 125 126 124 121 112 107 114 118 123 125 125 126 131 150 131 132 131 133 136 142 144 144 145 145 145 147 148 146 148
132 133 133 132 131 130 132 134 133 132 133 134 132 129 127 126 124 117 109 111 120 126 136 133 124 112 122 144 137 130 134 137 140 143 146 147 147 148 148 151 153 153 155 156
129 129 129 130 130 129 132 133 134 133 133 133 133 133 130 129 132 130 126 126 131 139 135 115 112 123 150 165 137 138 139 142 144 147 149 151 152 153 155 160 160 162 166 169
125 124 124 125 126 127 127 127 125 125 126 127 128 130 132 133 132 126 117 116 116 132 119 112 130 147 192 156 139 142 143 148 152 155 156 160 161 161 163 167 168 170 172 183
123 123 124 126 125 123 123 124 124 126 128 127 129 133 136 130 127 121 125 131 135 147 130 131 147 176 192 152 147 147 150 152 154 159 163 166 170 168 171 177 179 185 192 199
122 121 121 121 118 121 127 129 130 132 132 129 129 129 127 124 125 128 134 140 142 148 143 146 159 186 185 162 158 161 160 153 164 184 178 176 180 182 184 186 189 199 199 205
113 112 113 112 116 122 126 129 130 133 133 133 130 130 130 131 135 139 142 145 151 158 158 161 167 178 177 172 169 171 174 175 179 183 182 186 188 192 190 195 205 205 210 211